Simultaneous Nadir Overpasses (SNOs) Predictions

Prediction of SNOs between AQUA and METOP-B Satellite Orbit:

Table of predicted SNOs for the next 14.0 days since TLE Epoch: 9/7/2013
Index Date (AQUA) Time (AQUA) Lat,Lon (AQUA) SZA (AQUA ) Date (METOP-B) Time (METOP-B) Lat,Lon (METOP-B) SZA (METOP-B ) Distance(km) Time Diff (sec)
1 09/09/2013 20:39:51 -73.71, 44.53 111.33 09/09/2013 20:39:09 -73.71, 44.52 111.33 0.61 42
2 09/09/2013 21:29:20 73.80,-148.01 68.77 09/09/2013 21:29:47 73.79,-147.94 68.77 2.18 27
3 09/12/2013 16:14:09 -73.72, 110.93 110.26 09/12/2013 16:13:31 -73.72, 110.94 110.26 0.70 38
4 09/12/2013 17:03:38 73.81, -81.62 69.85 09/12/2013 17:04:09 73.80, -81.52 69.84 3.15 31
5 09/15/2013 11:48:26 -73.70, 177.40 109.20 09/15/2013 11:47:53 -73.72, 177.36 109.18 2.15 33
6 09/15/201
